CW0451 Weather Reports


Display with metric or nautical units.
time (UTC)temp
F
wind
direction
speed
MPH
gust
MPH
rain 1hr
in
rain 24hr
in
rain mn
in
humidity
%
barometer
mb
20260831124103 67 71 5.0 10.0 0.00 0.05 0.01 85 1019.5
20260831123104 66 76 6.0 11.0 0.00 0.05 0.01 88 1019.4
20260831122103 66 81 2.0 8.0 0.00 0.05 0.01 89 1019.3
20260831121104 66 74 1.0 7.0 0.00 0.05 0.01 91 1019.1
20260831120103 66 87 2.0 8.0 0.00 0.05 0.01 93 1019.1
20260831115104 66 67 1.0 3.0 0.00 0.05 0.01 95 1019.0
20260831114103 64 56 1.0 3.0 0.00 0.05 0.01 96 1019.0
20260831113104 64 5 0.0 1.0 0.00 0.05 0.01 97 1018.9
20260831112125 63 5 0.0 1.0 0.00 0.05 0.01 97 1018.8
20260831111124 62 5 0.0 2.0 0.00 0.05 0.01 97 1018.7
20260831110104 61 5 1.0 2.0 0.00 0.05 0.01 96 1018.6
20260831105103 61 5 0.0 3.0 0.00 0.05 0.01 96 1018.5
20260831104104 61 5 0.0 2.0 0.00 0.05 0.01 95 1018.4
20260831103104 62 5 1.0 3.0 0.00 0.05 0.01 95 1018.4
20260831102103 62 357 3.0 4.0 0.00 0.05 0.01 96 1018.3
20260831101104 62 14 2.0 5.0 0.00 0.05 0.01 96 1018.0
20260831100103 61 6 3.0 5.0 0.00 0.05 0.01 96 1017.8
20260831095104 61 358 2.0 5.0 0.00 0.05 0.01 96 1017.8
20260831094103 61 29 2.0 3.0 0.00 0.05 0.01 96 1017.7
20260831093103 61 12 1.0 3.0 0.00 0.05 0.01 95 1017.6
20260831092103 61 359 3.0 4.0 0.00 0.05 0.01 95 1017.5
20260831091103 62 11 2.0 6.0 0.00 0.05 0.01 95 1017.5
20260831085124 62 346 3.0 5.0 0.00 0.05 0.01 95 1017.4
20260831084103 62 351 4.0 6.0 0.00 0.05 0.01 95 1017.4
20260831083103 62 354 3.0 4.0 0.00 0.05 0.01 95 1017.3
20260831082104 62 326 1.0 3.0 0.00 0.05 0.01 95 1017.3
20260831081103 62 326 2.0 2.0 0.00 0.05 0.01 95 1017.1
20260831080104 63 326 0.0 1.0 0.00 0.05 0.01 94 1017.0
20260831075104 63 327 0.0 2.0 0.00 0.05 0.01 94 1017.0
20260831073103 64 326 2.0 3.0 0.00 0.05 0.01 95 1016.8
20260831072103 64 326 2.0 3.0 0.00 0.05 0.01 94 1016.8
20260831071103 64 326 1.0 3.0 0.00 0.05 0.01 95 1016.7
20260831070104 64 324 1.0 3.0 0.00 0.05 0.01 94 1016.8
20260831065103 65 322 1.0 3.0 0.00 0.05 0.01 94 1016.7
20260831064104 65 329 1.0 3.0 0.00 0.05 0.01 94 1016.6
20260831063103 66 325 2.0 4.0 0.00 0.05 0.01 94 1016.6
20260831062103 66 325 2.0 4.0 0.00 0.05 0.01 94 1016.5
20260831061125 66 303 1.0 3.0 0.00 0.05 0.01 94 1016.5
20260831060125 67 332 1.0 3.0 0.00 0.05 0.01 94 1016.4
20260831055103 67 332 2.0 4.0 0.01 0.05 0.01 93 1016.4
20260831054104 67 348 1.0 2.0 0.01 0.05 0.01 94 1016.3
20260831053124 68 349 0.0 0.0 0.01 0.05 0.01 93 1016.2
20260831052124 68 349 0.0 1.0 0.01 0.05 0.01 93 1016.1
20260831051125 68 348 0.0 1.0 0.00 0.04 0.00 93 1016.2
20260831050103 69 349 0.0 2.0 0.00 0.04 0.00 93 1016.2
20260831045124 69 348 0.0 3.0 0.00 0.04 0.00 93 1016.1
20260831044103 69 348 2.0 3.0 0.00 0.04 0.00 93 1016.1
20260831043124 69 305 1.0 3.0 0.00 0.04 0.00 93 1016.2
20260831042104 69 310 1.0 3.0 0.00 0.04 0.00 93 1016.3
20260831041103 69 236 3.0 5.0 0.00 0.04 0.00 93 1016.1
20260831040104 69 231 2.0 7.0 0.00 0.08 0.04 93 1016.1
20260831035125 70 251 5.0 11.0 0.02 0.04 0.04 93 1016.1
20260831034103 70 238 2.0 7.0 0.02 0.04 0.04 93 1016.3
20260831033125 70 286 1.0 5.0 0.02 0.04 0.04 93 1016.2
20260831032124 70 273 2.0 7.0 0.01 0.03 0.03 93 1016.4
20260831031103 70 276 1.0 7.0 0.00 0.02 0.02 92 1016.5
20260831030104 70 260 2.0 6.0 0.00 0.02 0.02 92 1016.4
20260831025103 70 198 3.0 6.0 0.02 0.02 0.02 92 1016.3
20260831024104 70 190 4.0 5.0 0.02 0.02 0.02 92 1016.5
20260831023103 70 268 0.0 1.0 0.02 0.02 0.02 91 1016.6
20260831022104 70 254 2.0 4.0 0.01 0.01 0.01 91 1016.5
20260831021124 70 255 1.0 5.0 0.00 0.00 0.00 91 1016.3
20260831020124 71 225 2.0 8.0 0.00 0.00 0.00 90 1016.3
20260831015103 71 245 2.0 6.0 0.00 0.00 0.00 89 1016.3
20260831014103 71 264 3.0 7.0 0.00 0.00 0.00 88 1016.3
20260831013104 71 256 2.0 6.0 0.00 0.00 0.00 88 1016.3
20260831012103 71 301 4.0 6.0 0.00 0.00 0.00 87 1016.3
20260831011103 71 235 2.0 9.0 0.00 0.00 0.00 86 1016.3
20260831005103 71 216 3.0 7.0 0.00 0.00 0.00 85 1016.2
20260831004103 71 252 4.0 8.0 0.00 0.00 0.00 84 1016.1
20260831003104 72 253 3.0 7.0 0.00 0.00 0.00 84 1016.1
20260831002145 72 245 3.0 8.0 0.00 0.00 0.00 82 1016.2
20260831001104 72 240 3.0 6.0 0.00 0.00 0.00 81 1016.0
20260831000103 72 241 3.0 6.0 0.00 0.00 0.00 79 1016.0
20260830235125 72 239 3.0 6.0 0.00 0.00 0.00 77 1015.8
20260830234103 73 206 2.0 8.0 0.00 0.00 0.00 75 1015.7
20260830233145 73 193 3.0 7.0 0.00 0.00 0.00 74 1015.7
20260830232104 73 222 4.0 6.0 0.00 0.00 0.00 73 1015.8
20260830231103 73 223 2.0 6.0 0.00 0.00 0.00 71 1015.7
20260830230104 74 242 3.0 9.0 0.00 0.00 0.00 70 1015.7
20260830225125 74 208 3.0 8.0 0.00 0.00 0.00 68 1015.8
20260830224124 75 234 4.0 9.0 0.00 0.00 0.00 66 1015.9
20260830223103 75 263 3.0 9.0 0.00 0.00 0.00 64 1016.0
20260830222103 75 306 4.0 10.0 0.00 0.00 0.00 64 1016.2
20260830221104 75 255 5.0 10.0 0.00 0.00 0.00 63 1016.2
20260830220124 75 252 4.0 8.0 0.00 0.00 0.00 62 1016.2
20260830215103 75 236 5.0 12.0 0.00 0.00 0.00 61 1016.1
20260830214104 76 240 4.0 12.0 0.00 0.00 0.00 60 1016.2
20260830213103 76 254 4.0 11.0 0.00 0.00 0.00 60 1016.2
20260830212104 76 241 4.0 16.0 0.00 0.00 0.00 59 1016.2
20260830211103 77 256 6.0 14.0 0.00 0.00 0.00 61 1016.2
20260830210104 77 248 7.0 15.0 0.00 0.00 0.00 61 1016.1
20260830205103 77 201 7.0 13.0 0.00 0.00 0.00 60 1016.1
20260830204103 78 219 7.0 12.0 0.00 0.00 0.00 59 1016.1
20260830203103 79 226 3.0 11.0 0.00 0.00 0.00 59 1016.2
20260830202103 79 210 3.0 11.0 0.00 0.00 0.00 59 1016.3
20260830201103 79 233 3.0 9.0 0.00 0.00 0.00 56 1016.2
20260830200104 79 240 5.0 11.0 0.00 0.00 0.00 54 1016.2
20260830195103 80 250 4.0 13.0 0.00 0.00 0.00 54 1016.5
20260830194104 80 236 5.0 10.0 0.00 0.00 0.00 55 1016.6
20260830193103 81 244 3.0 13.0 0.00 0.00 0.00 54 1016.7
20260830192103 81 241 3.0 13.0 0.00 0.00 0.00 54 1016.8
20260830191103 80 220 2.0 9.0 0.00 0.00 0.00 54 1016.9
20260830190103 81 242 5.0 10.0 0.00 0.00 0.00 51 1016.9
20260830185103 82 258 4.0 14.0 0.00 0.00 0.00 50 1017.2
20260830184103 83 222 2.0 12.0 0.00 0.00 0.00 48 1017.2
20260830183103 84 218 4.0 12.0 0.00 0.00 0.00 47 1017.2
20260830182103 84 246 5.0 15.0 0.00 0.00 0.00 46 1017.3
20260830181146 84 252 9.0 16.0 0.00 0.00 0.00 47 1017.6
20260830180124 84 271 3.0 17.0 0.00 0.00 0.00 48 1017.6
20260830175103 84 233 4.0 15.0 0.00 0.00 0.00 50 1017.7
20260830174103 84 274 4.0 12.0 0.00 0.00 0.00 48 1017.8
20260830173124 84 228 6.0 13.0 0.00 0.00 0.00 47 1017.7
20260830172125 84 293 4.0 14.0 0.00 0.00 0.00 44 1017.9
20260830171103 83 247 8.0 17.0 0.00 0.00 0.00 45 1017.8
20260830170103 83 259 7.0 14.0 0.00 0.00 0.00 47 1018.0
20260830165103 82 241 6.0 15.0 0.00 0.00 0.00 54 1018.2
20260830164103 82 227 6.0 16.0 0.00 0.00 0.00 52 1018.1
20260830163104 82 223 6.0 14.0 0.00 0.00 0.00 52 1018.2
20260830162103 82 226 7.0 13.0 0.00 0.00 0.00 53 1018.3
20260830161104 82 263 7.0 13.0 0.00 0.00 0.00 53 1018.5
20260830160103 81 250 6.0 11.0 0.00 0.00 0.00 55 1018.5
20260830155125 81 244 6.0 15.0 0.00 0.00 0.00 56 1018.7
20260830154104 81 241 4.0 12.0 0.00 0.00 0.00 56 1018.8
20260830153124 80 235 6.0 12.0 0.00 0.00 0.00 58 1018.8
20260830152103 80 294 2.0 10.0 0.00 0.00 0.00 56 1018.9
20260830151103 79 233 3.0 10.0 0.00 0.00 0.00 57 1019.0
20260830145104 78 289 4.0 12.0 0.00 0.00 0.00 62 1019.4
20260830144124 78 232 3.0 13.0 0.00 0.00 0.00 61 1019.5
20260830143124 78 243 5.0 14.0 0.00 0.00 0.00 63 1019.5
20260830142104 76 279 2.0 8.0 0.00 0.00 0.00 63 1019.5
20260830141103 76 271 3.0 10.0 0.00 0.00 0.00 61 1019.5
20260830135103 75 273 3.0 11.0 0.00 0.00 0.00 67 1019.8
20260830134103 74 273 5.0 9.0 0.00 0.00 0.00 66 1019.8
20260830133103 74 224 2.0 9.0 0.00 0.00 0.00 68 1020.1
20260830132103 73 258 4.0 7.0 0.00 0.00 0.00 72 1020.0
20260830131103 72 245 3.0 6.0 0.00 0.00 0.00 73 1020.1
20260830125104 71 274 2.0 9.0 0.00 0.00 0.00 73 1020.3